Location: *
(42.0175°N, 9.4056°E)
Time: 03:55:42
(UTC+00:00)

SL-16 R/B - Pass Details

Date: 25 August 2019
Orbit: 842 x 846 km, 71.0° (Epoch: 14 October)

Event Time Altitude Azimuth Distance (km) Brightness Sun altitude
Rises 19:39:14 0° 350° (N) 3,414 6.0 -16.3°
Reaches altitude 10° 19:43:43 10° 23° (NNE) 2,475 4.7 -17.0°
Maximum altitude 19:45:35 12° 42° (NE) 2,363 4.4 -17.3°
Drops below altitude 10° 19:47:28 10° 62° (ENE) 2,472 4.4 -17.6°
Enters shadow 19:47:59 - 67° (ENE) 2,539 4.4 -17.7°
